Location: Griffith Observatory
(34.1130°N, 118.3015°W)
Time: 20:06:45
(UTC-07:00)

BlueWalker 3 - Visible Passes

Search period start: 13 July 2025 00:00
Search period end: 23 July 2025 00:00
Orbit: 461 x 470 km, 53.2° (Epoch: 13 July)

Date Brightness Start Highest point End Pass type
(mag) Time Alt. Az. Time Alt. Az. Time Alt. Az.
13 Jul 4.9 02:06:56 10° NNW 02:07:45 14° N 02:07:45 14° N visible
13 Jul 5.0 20:37:00 10° WNW 20:38:59 14° NNW 20:40:59 10° N visible
14 Jul 5.2 01:34:38 10° N 01:34:50 11° N 01:34:50 11° N visible
15 Jul 5.3 01:02:24 10° N 01:02:25 10° N 01:02:25 10° N visible
19 Jul 5.1 23:56:06 10° NNW 23:56:29 12° NNW 23:56:29 12° NNW visible
20 Jul 4.7 23:23:37 10° NNW 23:24:42 16° N 23:24:42 16° N visible
21 Jul 4.3 22:51:10 10° NNW 22:52:58 18° NNE 22:52:58 18° NNE visible
22 Jul 4.0 22:18:45 10° N 22:21:16 17° NNE 22:21:17 17° NNE visible
